Content
SEND FEEDBACK

Daily
Averages
Monthly
Summary
Canada

MONTREAL, QUEBEC


Home > North America > Canada > Quebec
Elevation: 118 feet     Latitude: 45 28N     Longitude: 073 45W

WEATHER
 
SELECT A DAY
Number of Records: 203,669;   Date Range: 1/1/95 - 12/26/14
 
SHARE

PRINT THIS DATA

[ ← Previous Day ]
WEATHER ALMANAC - MAY 6, 2013
[ Next Day → ]
[ °C ]   °F
Weather ElementAverageHighLow
Temperature68.5 °F80.6 °F (4:00 pm)55.4 °F (5:00 am)
Dewpoint37.2 °F41 °F (11:00 am)33.8 °F (5:00 pm)
Humidity31.9 %51 % (5:00 am)13 % (2:00 pm)
Barometer30.09 in30.16 in (8:00 am)30.01 in (7:00 pm)
Wind Speed8.2 mph13.8 mph (12:00 pm)
Weather ElementAverage
Visibility24.8 mi
Wind DirectionS (183 °)

Weather ElementTotal
Precipitation---
Cooling Degree Days3 (Base 65)
Growing Degree Days18 (Base 50)
Averaged from 27 records on May 6, 2013
WEATHER CONDITIONS BREAKOUT
WIND DIRECTION BREAKOUT
WEATHER BY HOUR - MAY 6, 2013
[ °C ]   °F
Local TimeTemperatureDewpointHumidityBarometerVisibilityWind DirectionWind SpeedGust SpeedPrecipitationEventsConditions
1:00 AM64.4 °F37.4 °F37 %30.10 in15.0 miSSE (150°)4.6 mphPartly Cloudy
2:00 AM59.0 °F38.0 °F34 %30.10 in15.0 miSE (140°)3.5 mph
2:00 AM59.0 °F37.4 °F45 %30.10 in15.0 miESE (120°)2.3 mphClear
3:00 AM59.0 °F37.4 °F45 %30.11 in15.0 miSE (140°)2.3 mphClear
4:00 AM57.2 °F37.4 °F48 %30.11 in15.0 miSE (130°)8.1 mphClear
5:00 AM55.4 °F37.4 °F51 %30.12 in15.0 miSSE (160°)5.8 mphClear
6:00 AM55.4 °F37.4 °F51 %30.13 in30.0 miSE (140°)3.5 mphPartly Cloudy
7:00 AM57.2 °F37.4 °F48 %30.15 in30.0 miSSE (150°)5.8 mphPartly Cloudy
8:00 AM62.0 °F40.0 °F32 %30.16 in28.0 miSouth (180°)5.8 mphClear
8:00 AM62.6 °F39.2 °F42 %30.16 in30.0 miSouth (190°)5.8 mphPartly Cloudy
9:00 AM64.4 °F39.2 °F40 %30.16 in30.0 miSW (220°)8.1 mphPartly Cloudy
10:00 AM69.8 °F35.6 °F28 %30.15 in30.0 miSSW (210°)11.5 mphPartly Cloudy
11:00 AM71.6 °F41.0 °F33 %30.15 in30.0 miSSW (210°)12.7 mphScattered Clouds
12:00 PM73.4 °F37.4 °F27 %30.13 in30.0 miSSW (200°)13.8 mphPartly Cloudy
1:00 PM75.2 °F35.6 °F24 %30.11 in30.0 miSSW (210°)12.7 mphScattered Clouds
2:00 PM79.0 °F38.0 °F13 %30.09 in28.0 miSSW (210°)11.5 mphScattered Clouds
2:00 PM78.8 °F37.4 °F23 %30.09 in30.0 miSSW (210°)10.4 mphScattered Clouds
3:00 PM78.8 °F39.2 °F24 %30.07 in30.0 miSouth (190°)11.5 mphPartly Cloudy
4:00 PM80.6 °F35.6 °F20 %30.05 in30.0 miSSW (200°)9.2 mphPartly Cloudy
5:00 PM80.6 °F33.8 °F18 %30.03 in30.0 miSSW (200°)12.7 mphPartly Cloudy
6:00 PM78.8 °F35.6 °F21 %30.02 in30.0 miSSW (210°)11.5 mphClear
7:00 PM77.0 °F35.6 °F22 %30.01 in30.0 miSSW (210°)8.1 mphClear
8:00 PM73.0 °F36.0 °F16 %30.01 in28.0 miSSW (200°)8.1 mphClear
8:00 PM73.4 °F35.6 °F25 %30.01 in30.0 miSSW (200°)8.1 mphClear
9:00 PM71.6 °F35.6 °F27 %30.02 in15.0 miSSE (160°)9.2 mphClear
10:00 PM68.0 °F35.6 °F30 %30.03 in15.0 miSouth (170°)8.1 mphClear
11:00 PM64.4 °F37.4 °F37 %30.03 in15.0 miSW (230°)5.8 mphClear
Hourly data recorded from CYUL, located miles away from Montreal, Quebec







STORIES FROM OUR PARTNERS